User: anonymous   Login
Location: Caltech
(34.1382°N, 118.1253°W)
Time: 23:17:45
(UTC-07:00)
Language:

Gurwin Techsat 1B - Orbit

View from above orbital plane
View from above orbital plane
View from above satellite
View from above satellite

Ground track
Ground track

The orbit data is extracted from the following two-line orbital elements,

1 25397U 98043D   14302.83792331  .00000113  00000-0  68286-4 0  4866
2 25397 098.4874 255.9181 0000129 241.0486 171.2511 14.23476536847026
Epoch (UTC): 29 October 2014 20:06:36
Eccentricity: 0.0000129
inclination: 98.4874°
perigee height: 813 km
apogee height: 814 km
right ascension of ascending node: 255.9181°
argument of perigee: 241.0486°
revolutions per day: 14.23476536
mean anomaly at epoch: 171.2511°
orbit number at epoch: 84702

The dashed part of the orbit path shows where the satellite is in the earth's shadow,  

DLR